Home > Weather > Leawood > Past weeks

Flag for USA Weather for the Past 2 Weeks in Leawood, Kansas, USA

Now
56 °F

Passing clouds.


Feels Like: 54 °F
Forecast: 46 / 60 °F
Wind: 7 mph from West

Location: Johnson County Executive Airport

Current Time: May 1, 2016 at 12:22:23 AM

Latest Report: Apr 30, 2016 at 10:53 PM


Visibility: 10 mi

Pressure: 29.84 "Hg

Humidity: 70%

Dew Point: 46 °F

Location of LeawoodLocation

Historic Weather in Leawood — Graph

°F

Leawood Temperature Yesterday

Maximum temperature yesterday: 66 °F (at 3:53 PM)
Minimum temperature yesterday: 55 °F (at 12:53 AM)
Average temperature yesterday: 60 °F

High & Low Weather Summary for the Past Weeks

 TemperatureHumidityPressure
High76 °F (Apr 23, 3:53 PM)100% (Apr 27, 3:53 AM)30.20 "Hg (Apr 27, 3:53 AM)
Low44 °F (Apr 28, 4:53 AM)36% (Apr 23, 4:53 PM)29.44 "Hg (Apr 27, 4:53 AM)
Average61 °F76%29.91 "Hg
* Reported Apr 15 10:53 PM — Apr 30 10:53 PM, Leawood, Weather by CustomWeather, © 2016

Note: Actual official high and low records may vary slightly from our data, if they occured in-between our weather recording intervals... More about our weather records

Advertising

Leawood Weather History for the Previous 24 Hours

Scroll right to see more
 ConditionsComfort  
Time TempWeatherWind HumidityBarometerVisibility
10:53 PM
Sat, Apr 30
56 °FPassing clouds.7 mph70%29.84 "Hg10 mi
9:53 PM56 °FClear.5 mph72%29.82 "Hg10 mi
8:53 PM59 °FSunny.3 mph62%29.80 "Hg10 mi
7:53 PM61 °FSunny.7 mph58%29.78 "Hg10 mi
6:53 PM63 °FSunny.7 mph54%29.75 "Hg10 mi
5:53 PM64 °FSunny.8 mph54%29.74 "Hg10 mi
4:53 PM65 °FPassing clouds.14 mph56%29.72 "Hg10 mi
3:53 PM66 °FPassing clouds.14 mph56%29.71 "Hg10 mi
2:53 PM64 °FPassing clouds.13 mph61%29.71 "Hg10 mi
1:53 PM63 °FPartly sunny.12 mph65%29.71 "Hg10 mi
12:53 PM59 °FPartly sunny.10 mph78%29.71 "Hg10 mi
11:53 AM58 °FOvercast.14 mph84%29.70 "Hg10 mi
10:53 AM64 °FBroken clouds.16 mph81%29.65 "Hg10 mi
9:57 AM63 °FMostly cloudy.12 mph90%29.64 "Hg10 mi
8:56 AM60 °FLow clouds.7 mph96%29.65 "Hg10 mi
7:53 AM58 °FLow clouds.9 mph97%29.64 "Hg10 mi
6:53 AM58 °FLight rain. Fog.10 mph97%29.64 "Hg6 mi
5:53 AM58 °FLow clouds.13 mph97%29.63 "Hg10 mi
4:53 AM58 °FLow clouds.7 mph97%29.64 "Hg10 mi
3:53 AM57 °FLow clouds.9 mph96%29.64 "Hg10 mi
2:53 AM56 °FLow clouds.7 mph97%29.66 "Hg8 mi
1:53 AM56 °FLow clouds.8 mph93%29.69 "Hg10 mi
12:53 AM55 °FLow clouds.6 mph96%29.71 "Hg10 mi
Weather by CustomWeather, © 2016

See weather overviewHow to use our weather pages